Date String (YYYY-MM-DD hh:mm:ss) UTC,Instrument flags,Ambient pressure (hPa),Sample flow (lpm),Bypass flow (lpm),Sample temperature (°C),Ambient temperature (°C),ASC tube jacket temperature (°C),LED temperature (°C),Box temperature (°C),Sample RH (%),Span deviation,Mass concentration (μg/m³),Mass concentration (μg/m³),Mass concentration (μg/m³)
DateTimeUTC,F1_M11,P_M11,Q1_M11,Q2_M11,T1_M11,T2_M11,T3_M11,T4_M11,T5_M11,U1_M11,ZSPAN_M11,X0_M11,X2_M11,X1_M11
2022-10-03 02:00:00,,0828.6,4.99,0.00,29.6,28.3,00.0,38.3,31.5,19.1,0000.0,0003.65,0002.35,0002.04
2022-10-03 02:01:00,,0828.7,5.01,0.00,29.6,28.4,00.0,38.3,31.5,19.0,0000.0,0003.47,0002.26,0001.97
2022-10-03 02:02:00,,0829.0,4.99,0.00,29.6,28.4,00.0,38.4,31.5,18.8,0000.0,0003.35,0002.18,0001.90
2022-10-03 02:03:00,,0828.7,5.01,0.00,29.7,28.4,00.0,38.4,31.5,18.6,0000.0,0003.31,0002.13,0001.83
2022-10-03 02:04:00,,0828.7,4.98,0.00,29.7,28.5,00.0,38.4,31.5,18.5,0000.0,0003.29,0002.10,0001.79
2022-10-03 02:05:00,,0828.8,5.01,0.00,29.7,28.5,00.0,38.4,31.6,18.7,0000.0,0003.42,0002.04,0001.72
2022-10-03 02:06:00,,0828.6,5.00,0.00,29.7,28.5,00.0,38.4,31.6,18.5,0000.0,0003.58,0001.99,0001.67
2022-10-03 02:07:00,,0828.9,5.00,0.00,29.7,28.6,00.0,38.4,31.6,18.5,0000.0,0003.33,0001.92,0001.62
2022-10-03 02:08:00,,0829.1,5.00,0.00,29.8,28.6,00.0,38.4,31.6,18.4,0000.0,0003.08,0001.90,0001.58
2022-10-03 02:09:00,,0829.2,5.02,0.00,29.8,28.6,00.0,38.4,31.7,18.3,0000.0,0003.09,0001.90,0001.55
2022-10-03 02:10:00,,0829.1,4.99,0.00,29.8,28.6,00.0,38.4,31.7,18.0,0000.0,0002.93,0001.86,0001.52
2022-10-03 02:11:00,,0829.2,5.01,0.00,29.8,28.7,00.0,38.5,31.7,17.9,0000.0,0002.90,0001.84,0001.50
2022-10-03 02:12:00,,0829.1,4.99,0.00,29.8,28.7,00.0,38.5,31.7,17.9,0000.0,0003.06,0001.86,0001.49
2022-10-03 02:13:00,,0829.2,5.00,0.00,29.8,28.7,00.0,38.5,31.7,17.7,0000.0,0003.11,0001.86,0001.48
2022-10-03 02:14:00,,0829.3,5.00,0.00,29.8,28.7,00.0,38.5,31.7,17.8,0000.0,0003.11,0001.83,0001.46
2022-10-03 02:15:00,,0829.2,5.00,0.00,29.9,28.7,00.0,38.5,31.7,17.7,0000.0,0003.23,0001.82,0001.44
2022-10-03 02:16:00,,0829.2,5.01,0.00,29.9,28.7,00.0,38.5,31.7,17.6,0000.0,0003.01,0001.80,0001.43
2022-10-03 02:17:00,,0829.1,5.00,0.00,29.9,28.7,00.0,38.6,31.7,17.5,0000.0,0002.82,0001.78,0001.42
2022-10-03 02:18:00,,0829.2,4.99,0.00,29.9,28.8,00.0,38.6,31.8,17.5,0000.0,0002.78,0001.76,0001.41
2022-10-03 02:19:00,,0829.1,5.01,0.00,29.9,28.8,00.0,38.6,31.8,17.7,0000.0,0003.32,0001.73,0001.40
2022-10-03 02:20:00,,0829.2,4.99,0.00,29.9,28.8,00.0,38.6,31.8,17.8,0000.0,0003.65,0001.69,0001.39
2022-10-03 02:21:00,,0828.9,5.01,0.00,30.0,28.8,00.0,38.6,31.8,17.5,0000.0,0003.75,0001.71,0001.39
2022-10-03 02:22:00,,0828.7,4.99,0.00,30.0,28.8,00.0,38.6,31.8,17.6,0000.0,0003.80,0001.73,0001.39
2022-10-03 02:23:00,,0828.8,5.01,0.00,30.0,28.8,00.0,38.7,31.9,17.6,0000.0,0003.68,0001.71,0001.38
2022-10-03 02:24:00,,0828.7,4.99,0.00,30.0,28.8,00.0,38.7,31.9,17.6,0000.0,0003.81,0001.71,0001.37
2022-10-03 02:25:00,,0828.7,5.02,0.00,30.0,28.8,00.0,38.7,31.9,17.6,0000.0,0003.76,0001.72,0001.37
2022-10-03 02:26:00,,0828.7,4.99,0.00,30.0,28.9,00.0,38.7,31.9,17.5,0000.0,0003.58,0001.70,0001.37
2022-10-03 02:27:00,,0828.7,5.01,0.00,30.0,28.9,00.0,38.7,31.9,17.6,0000.0,0003.54,0001.71,0001.37
2022-10-03 02:28:00,,0829.0,4.98,0.00,30.1,28.9,00.0,38.7,31.9,17.7,0000.0,0003.40,0001.68,0001.38
2022-10-03 02:29:00,,0828.8,5.01,0.00,30.1,28.8,00.0,38.7,32.0,17.7,0000.0,0003.47,0001.70,0001.39
2022-10-03 02:30:00,,0828.7,5.00,0.00,30.1,27.4,00.0,38.7,31.9,17.6,0000.0,0003.02,0001.72,0001.43
2022-10-03 02:31:00,,0828.9,5.01,0.00,30.0,26.4,00.0,38.7,31.7,17.4,0000.0,0002.58,0001.77,0001.45
2022-10-03 02:32:00,,0829.3,5.01,0.00,29.9,26.5,00.0,38.6,31.6,17.6,0000.0,0002.55,0001.77,0001.47
2022-10-03 02:33:00,,0829.3,5.00,0.00,29.8,26.8,00.0,38.6,31.4,17.6,0000.0,0002.77,0001.77,0001.49
2022-10-03 02:34:00,,0829.0,5.00,0.00,29.8,27.1,00.0,38.5,31.4,17.6,0000.0,0002.86,0001.76,0001.51
2022-10-03 02:35:00,,0828.9,4.99,0.00,29.7,27.4,00.0,38.5,31.4,17.7,0000.0,0003.05,0001.77,0001.52
2022-10-03 02:36:00,,0828.9,4.99,0.00,29.7,27.6,00.0,38.5,31.4,17.6,0000.0,0003.74,0001.79,0001.53
2022-10-03 02:37:00,,0829.0,5.00,0.00,29.7,27.8,00.0,38.5,31.4,17.9,0000.0,0003.71,0001.76,0001.53
2022-10-03 02:38:00,,0829.0,5.00,0.00,29.7,28.0,00.0,38.4,31.5,19.5,0000.0,0003.91,0001.78,0001.54
2022-10-03 02:39:00,,0829.1,4.98,0.00,29.7,28.1,00.0,38.4,31.5,20.1,0000.0,0004.08,0001.87,0001.58
2022-10-03 02:40:00,,0829.1,5.02,0.00,29.7,28.2,00.0,38.4,31.5,20.5,0000.0,0004.06,0001.88,0001.60
2022-10-03 02:41:00,,0829.1,5.00,0.00,29.7,28.3,00.0,38.4,31.5,20.6,0000.0,0005.25,0001.92,0001.61
2022-10-03 02:42:00,,0829.1,4.99,0.00,29.7,28.4,00.0,38.4,31.6,21.0,0000.0,0005.68,0001.90,0001.62
2022-10-03 02:43:00,,0829.0,5.01,0.00,29.7,28.4,00.0,38.4,31.6,20.9,0000.0,0005.75,0001.93,0001.62
2022-10-03 02:44:00,,0829.1,4.98,0.00,29.7,28.4,00.0,38.5,31.6,20.8,0000.0,0005.55,0001.94,0001.64
2022-10-03 02:45:00,,0829.1,5.01,0.00,29.7,28.5,00.0,38.5,31.6,20.3,0000.0,0005.37,0001.95,0001.64
2022-10-03 02:46:00,,0829.1,4.99,0.00,29.8,28.5,00.0,38.5,31.6,20.1,0000.0,0005.03,0001.94,0001.64
2022-10-03 02:47:00,,0829.1,5.01,0.00,29.8,28.5,00.0,38.5,31.6,19.1,0000.0,0004.49,0001.99,0001.65
2022-10-03 02:48:00,,0829.3,4.99,0.00,29.8,28.5,00.0,38.5,31.7,18.8,0000.0,0004.51,0002.01,0001.66
2022-10-03 02:49:00,,0829.3,5.00,0.00,29.8,28.6,00.0,38.5,31.7,19.4,0000.0,0004.43,0002.01,0001.64
2022-10-03 02:50:00,,0829.2,4.99,0.00,29.8,28.6,00.0,38.5,31.7,19.5,0000.0,0004.48,0002.00,0001.62
2022-10-03 02:51:00,,0829.3,5.01,0.00,29.8,28.7,00.0,38.5,31.7,19.5,0000.0,0004.78,0002.07,0001.59
2022-10-03 02:52:00,,0829.3,4.99,0.00,29.9,28.7,00.0,38.5,31.8,19.5,0000.0,0003.66,0002.08,0001.55
2022-10-03 02:53:00,,0829.4,5.01,0.00,29.9,28.7,00.0,38.5,31.8,19.5,0000.0,0003.24,0002.08,0001.52
2022-10-03 02:54:00,,0829.4,4.98,0.00,29.9,28.7,00.0,38.5,31.8,19.3,0000.0,0003.30,0002.10,0001.50
2022-10-03 02:55:00,,0829.4,5.01,0.00,29.9,28.7,00.0,38.6,31.8,19.0,0000.0,0003.31,0002.08,0001.47
2022-10-03 02:56:00,,0829.3,5.01,0.00,29.9,28.7,00.0,38.6,31.8,19.2,0000.0,0003.71,0002.17,0001.46
2022-10-03 02:57:00,,0829.3,4.99,0.00,29.9,28.8,00.0,38.6,31.8,19.3,0000.0,0005.69,0002.21,0001.46
2022-10-03 02:58:00,,0829.4,4.99,0.00,30.0,28.8,00.0,38.6,31.9,19.1,0000.0,0005.76,0002.17,0001.44
2022-10-03 02:59:00,,0829.4,5.00,0.00,30.0,28.8,00.0,38.6,31.9,19.0,0000.0,0006.17,0002.20,0001.42
